Fayetteville, NC

11:57 AM EST on February 19, 2017 (GMT -0500)
Fayetteville Regional-Grannis

Weather History for KFAY - October, 2013

Change the Weather History Date:

Sunday, October 6, 2013

  Actual Average Record
Temperature  
Mean Temperature 76 °F 67 °F  
Max Temperature 87 °F 77 °F 100 °F (1954)
Min Temperature 65 °F 56 °F 36 °F (1965)
Degree Days  
Heating Degree Days 0 2  
Month to date heating degree days 0 9  
Since 1 July heating degree days 0 18  
Cooling Degree Days 11 3  
Month to date cooling degree days 53 25  
Year to date cooling degree days 1897 1933  
Growing Degree Days 25 (Base 50)    
Moisture  
Dew Point 67 °F    
Average Humidity 76    
Maximum Humidity 100    
Minimum Humidity 51    
Precipitation  
Precipitation 0.00 in 0.14 in 1.47 in (1964)
Month to date precipitation 0.00 0.95  
Year to date precipitation 35.63 36.78  
Sea Level Pressure  
Sea Level Pressure 30.02 in    
Wind  
Wind Speed 6 mph (SE)    
Max Wind Speed 16 mph    
Max Gust Speed 20 mph    
Visibility 6 miles    
Events Fog    
T = Trace of Precipitation, MM = Missing Value Source: NWS Daily Summary

Daily Weather History Graph

Daily Weather History Graph

Search for Another Location

Airport or City:

Trip Planner

Search our weather history database for the weather conditions in past years. The results will help you decide how hot, cold, wet, or windy it might be!

Date:

Astronomy

Oct. 06, 2013 Rise Set
Actual Time 7:14 AM EDT 6:52 PM EDT
Civil Twilight 6:49 AM EDT 7:17 PM EDT
Nautical Twilight 6:19 AM EDT 7:46 PM EDT
Astronomical Twilight 5:50 AM EDT 8:16 PM EDT
Moon 8:51 AM EDT (10/6) 7:56 PM EDT (10/6)
Length of Visible Light 12h 28m
Length of Day
11h 37m
Waxing Crescent, 3% of the Moon is Illuminated
Oct 6
Waxing Crescent
Oct 11
First Quarter
Oct 18
Full
Oct 26
Last Quarter
Nov 3
New

Hourly Weather History & Observations

Time (EDT) Temp. Heat Index Dew Point Humidity Pressure Visibility Wind Dir Wind Speed Gust Speed Precip Events Conditions
12:53 AM 69.1 °F - 64.0 °F 84% 30.05 in 10.0 mi Calm Calm - N/A   Clear
1:53 AM 66.9 °F - 64.9 °F 93% 30.05 in 10.0 mi Calm Calm - N/A   Clear
2:53 AM 66.0 °F - 64.9 °F 96% 30.03 in 3.0 mi Calm Calm - N/A   Partly Cloudy
2:58 AM 66.2 °F - 64.4 °F 94% 30.05 in 2.0 mi Calm Calm - N/A   Mostly Cloudy
3:08 AM 64.4 °F - 64.4 °F 100% 30.04 in 6.0 mi Calm Calm - N/A   Mostly Cloudy
3:41 AM 66.2 °F - 64.4 °F 94% 30.04 in 2.0 mi Calm Calm - N/A   Overcast
3:44 AM 66.2 °F - 66.2 °F 100% 30.04 in 0.8 mi Calm Calm - N/A   Mist
3:53 AM 66.9 °F - 66.0 °F 97% 30.02 in 0.2 mi Calm Calm - N/A Fog Fog
4:53 AM 66.9 °F - 66.0 °F 97% 30.02 in 0.2 mi Calm Calm - N/A Fog Fog
5:21 AM 66.2 °F - 66.2 °F 100% 30.04 in 0.2 mi Calm Calm - N/A Fog Fog
5:53 AM 66.0 °F - 64.9 °F 96% 30.02 in 0.2 mi Calm Calm - N/A Fog Fog
6:53 AM 64.9 °F - 64.0 °F 97% 30.03 in 0.2 mi Calm Calm - N/A Fog Fog
7:53 AM 66.0 °F - 64.9 °F 96% 30.04 in 0.2 mi NNE 3.5 mph - N/A Fog Fog
8:17 AM 66.2 °F - 66.2 °F 100% 30.06 in 0.2 mi NNE 3.5 mph - N/A Fog Fog
8:41 AM 66.2 °F - 66.2 °F 100% 30.07 in 0.2 mi Calm Calm - N/A Fog Fog
8:53 AM 66.9 °F - 66.0 °F 97% 30.05 in 0.2 mi Calm Calm - N/A Fog Fog
9:04 AM 68.0 °F - 66.2 °F 94% 30.07 in 0.2 mi Calm Calm - N/A Fog Fog
9:13 AM 68.0 °F - 66.2 °F 94% 30.07 in 0.5 mi NE 3.5 mph - N/A Fog Fog
9:34 AM 69.8 °F - 68.0 °F 94% 30.07 in 1.0 mi Calm Calm - N/A   Overcast
9:53 AM 69.1 °F - 68.0 °F 96% 30.06 in 2.0 mi Calm Calm - N/A   Overcast
10:08 AM 69.8 °F - 68.0 °F 94% 30.08 in 5.0 mi Calm Calm - N/A   Overcast
10:36 AM 73.4 °F - 68.0 °F 83% 30.08 in 10.0 mi East 3.5 mph - N/A   Overcast
10:53 AM 75.9 °F - 69.1 °F 79% 30.06 in 10.0 mi SSE 5.8 mph - N/A   Mostly Cloudy
11:06 AM 77.0 °F - 69.8 °F 78% 30.07 in 10.0 mi SSE 4.6 mph - N/A   Scattered Clouds
11:48 AM 82.4 °F 86.3 °F 69.8 °F 66% 30.05 in 10.0 mi Variable 4.6 mph - N/A   Mostly Cloudy
11:53 AM 81.0 °F 83.8 °F 68.0 °F 65% 30.03 in 10.0 mi South 6.9 mph - N/A   Mostly Cloudy
12:53 PM 84.0 °F 87.0 °F 68.0 °F 58% 30.01 in 10.0 mi ESE 8.1 mph - N/A   Mostly Cloudy
1:00 PM 84.2 °F 87.3 °F 68.0 °F 58% 30.02 in 10.0 mi South 8.1 mph - N/A   Partly Cloudy
1:53 PM 84.0 °F 87.0 °F 68.0 °F 58% 29.97 in 10.0 mi SE 4.6 mph - N/A   Mostly Cloudy
2:53 PM 86.0 °F 88.8 °F 66.9 °F 53% 29.96 in 10.0 mi SSE 9.2 mph - N/A   Partly Cloudy
3:53 PM 86.0 °F 89.4 °F 68.0 °F 55% 29.94 in 10.0 mi SE 8.1 mph - N/A   Partly Cloudy
4:53 PM 82.9 °F 87.0 °F 70.0 °F 65% 29.93 in 10.0 mi SE 15.0 mph - N/A   Scattered Clouds
5:53 PM 82.9 °F 85.8 °F 68.0 °F 60% 29.92 in 10.0 mi SSE 16.1 mph - N/A   Partly Cloudy
6:53 PM 79.0 °F - 69.1 °F 72% 29.94 in 10.0 mi SSE 10.4 mph - N/A   Mostly Cloudy
7:53 PM 77.0 °F - 69.1 °F 76% 29.94 in 10.0 mi SSE 10.4 mph - N/A   Scattered Clouds
8:53 PM 75.9 °F - 70.0 °F 82% 29.96 in 10.0 mi SE 8.1 mph - N/A   Overcast
9:53 PM 73.9 °F - 71.1 °F 91% 29.95 in 10.0 mi SSE 8.1 mph - N/A   Clear
10:53 PM 73.9 °F - 70.0 °F 87% 29.95 in 10.0 mi SSE 8.1 mph - N/A   Clear
11:53 PM 73.0 °F - 70.0 °F 90% 29.93 in 10.0 mi SSE 5.8 mph - N/A   Clear